Flag for Germany Weather past 2 weeks in Eisenhüttenstadt, Brandenburg, Germany

Now
21 °F

Passing clouds.


Feels Like: 15 °F
Forecast: 18 / 26 °F
Wind: 5 mph from East

Location: Lindenberg

Current Time: Dec 27, 2014 at 9:15:36 PM

Latest Report: Dec 27, 2014 at 9:00 PM


Visibility: 6 mi

Pressure: 29.88 "Hg

Humidity: 89%

Dew point: 18 °F

Location of EisenhüttenstadtLocation

Historic Weather in Eisenhüttenstadt — Graph

°F

Eisenhüttenstadt temperature yesterday

Maximum temperature yesterday: 33 °F (at 1:00 AM)
Minimum temperature yesterday: 24 °F (at 11:00 PM)
Average temperature yesterday: 30 °F

Past Weeks' High & Low Weather Summary

 TemperatureHumidityPressure
High54 °F (Dec 19, 9:00 AM)99% (Dec 14, 11:00 AM)30.31 "Hg (Dec 14, 11:00 AM)
Low22 °F (Dec 27, 3:00 AM)66% (Dec 13, 3:00 PM)29.41 "Hg (Dec 12, 8:00 PM)
Average41 °F88%29.89 "Hg
* Reported Dec 12 8:00 PM — Dec 27 8:00 PM, Eisenhüttenstadt, Weather by CustomWeather, © 2014

Note: Actual official high and low records may vary slightly from our data, if they occured in-between our weather recording intervals... More about our weather records

Advertising

Eisenhüttenstadt weather history for previous 24 hours

 ConditionsComfort  
Time TempWeatherWind HumidityBarometerVisibility
8:00 PM
Dec 27
22 °FPassing clouds.5 mph89%29.86 "Hg6 mi
7:00 PM23 °FOvercast.5 mph89%29.84 "Hg9 mi
6:00 PM24 °FOvercast.5 mph88%29.83 "Hg9 mi
5:00 PM25 °FOvercast.5 mph87%29.83 "Hg8 mi
3:00 PM27 °FOvercast.3 mph90%29.83 "Hg9 mi
2:00 PM28 °FOvercast.3 mph86%29.84 "Hg11 mi
1:00 PM28 °FPartly sunny.3 mph91%29.85 "Hg8 mi
12:00 PM26 °FPartly sunny.3 mph95%29.88 "Hg9 mi
11:00 AM25 °FLow clouds.3 mph97%29.91 "Hg6 mi
9:00 AM23 °FOvercast.3 mph97%29.97 "Hg6 mi
8:00 AM23 °FFog.3 mph97%29.99 "Hg1 mi
7:00 AM23 °FFog.3 mph98%30.02 "Hg0 mi
6:00 AM22 °FFog.3 mph98%30.05 "Hg0 mi
5:00 AM23 °FFog.2 mph98%30.09 "Hg0 mi
3:00 AM22 °FPassing clouds.2 mph97%30.15 "Hg6 mi
2:00 AM24 °FPassing clouds.2 mph98%30.17 "Hg6 mi
1:00 AM23 °FClear.2 mph98%30.20 "Hg6 mi
12:00 AM24 °FPassing clouds.1 mph98%30.23 "Hg6 mi
11:00 PM
Dec 26
24 °FPassing clouds.2 mph98%30.25 "Hg6 mi
9:00 PM26 °FClear.2 mph97%30.27 "Hg7 mi
Weather by CustomWeather, © 2014

See weather overviewHow to use our weather pages